[[{"header":{"parameterUnit":"m.s-1","parameterCategory":1,"la1":30.2992,"la2":30.254,"lo1":-89.0895,"lo2":-89.0443,"dy":0.0025,"dx":0.0025,"nx":19,"ny":19,"refTime":"2026-03-25T21:00:00:Z","depth":0,"parameterNumber":2,"parameterNumberName":"U-component_of_WINDS"},"data":[0,0,0,2.6665,2.6666,2.6728,2.6728,2.6805,2.6805,0,0,0,0,0,0,0,0,0,0,0,2.6643,2.6644,2.6665,2.6666,2.6727,2.6728,2.6804,2.6805,0,0,0,0,0,0,0,0,0,0,0,2.6643,2.6644,2.6644,2.6666,2.6727,2.6728,2.6804,2.6759,0,0,0,0,0,0,0,0,0,0,2.67,2.6676,2.6643,2.6644,2.6667,2.6727,2.6728,2.6757,2.6762,2.6775,0,2.6785,0,2.6796,2.681,2.681,0,0,0,2.6669,2.6672,2.6692,2.6644,2.6667,2.6727,2.6701,2.676,2.6765,2.6782,2.6786,2.6789,2.6797,2.6811,2.6811,2.6878,2.6878,0,0,2.6665,2.6653,2.6688,2.6695,2.6683,2.6699,2.6702,2.6763,2.6767,2.6786,2.6791,2.6799,2.6811,2.6812,2.6878,2.6878,0,0,0,2.6654,2.665,2.6668,2.6692,2.6703,2.67,2.6705,2.6764,2.6771,2.6792,2.68,2.6811,2.6812,2.6877,2.6878,2.6875,0,0,0,2.6652,2.6643,2.6667,2.666,2.6702,2.6734,2.6704,2.6767,2.6774,2.6799,2.6811,2.6813,2.6877,2.6878,2.6874,2.6875,0,0,0,2.664,2.6642,2.665,2.6659,2.6685,2.6733,2.6744,2.6769,2.6779,2.681,2.6813,2.6877,2.6878,2.6874,2.6874,2.689,0,0,0,2.6624,2.6645,2.6649,2.6676,2.6684,2.6731,2.6743,2.6779,2.6805,2.6812,2.6877,2.6878,2.6874,2.6874,2.6889,2.69,2.6903,0,0,2.6643,2.6647,2.6664,2.667,2.6712,2.6722,2.6765,2.6801,2.6816,2.6857,2.6859,2.6874,2.6874,2.689,2.6926,2.6929,0,0,0,2.6666,2.6678,2.6692,2.6716,2.6745,2.677,2.6801,2.6816,2.6851,2.6834,2.6885,2.6885,2.6895,2.69,2.6902,2.6912,2.688,2.688,2.688,2.6672,2.6692,2.6722,2.6749,2.6774,2.6807,2.683,2.6855,2.6866,2.6878,2.689,2.691,2.6916,2.6917,2.6928,2.6897,2.6897,2.6897,2.6897,2.6702,2.6723,2.674,2.6776,2.6797,2.6828,2.6863,2.6871,2.6904,2.6901,2.6911,2.6906,2.692,2.6929,2.6897,2.6897,2.6897,2.6897,2.6897,2.6709,2.6722,2.674,2.678,2.6809,2.6838,2.687,2.6888,2.6905,2.6915,2.6931,2.6931,2.6934,2.6921,2.6921,2.6921,2.6922,2.6922,2.6922,2.6708,2.6728,2.6752,2.6787,2.6807,2.6837,2.6874,2.6895,2.6923,2.6935,2.6935,2.6946,2.6917,2.691,2.6923,2.6923,2.6922,2.6922,2.6922,2.673,2.6729,2.6765,2.6786,2.6831,2.6861,2.6885,2.6927,2.6948,2.6964,2.6975,2.695,2.6955,2.6953,2.6947,2.6969,2.6969,2.6969,2.6969,2.6735,2.674,2.6784,2.6816,2.685,2.6877,2.6921,2.6953,2.6985,2.6999,2.7,2.6993,2.6991,2.6997,2.6995,2.6989,2.7022,2.7022,2.7022,2.6751,2.6761,2.6793,2.6824,2.6862,2.6895,2.6938,2.6977,2.7013,2.7024,2.7012,2.701,2.7,2.6995,2.7004,2.7,2.699,0,0]},{"header":{"parameterUnit":"m.s-1","parameterCategory":1,"la1":30.2992,"la2":30.254,"lo1":-89.0895,"lo2":-89.0443,"dy":0.0025,"dx":0.0025,"nx":19,"ny":19,"refTime":"2026-03-25T21:00:00:Z","depth":0,"parameterNumber":3,"parameterNumberName":"V-component_of_WINDS"},"data":[0,0,0,2.4436,2.4438,2.4553,2.4553,2.4695,2.4697,0,0,0,0,0,0,0,0,0,0,0,2.4402,2.4403,2.4435,2.4438,2.4553,2.4553,2.4695,2.4697,0,0,0,0,0,0,0,0,0,0,0,2.4402,2.4403,2.4404,2.4439,2.4553,2.4554,2.4695,2.4609,0,0,0,0,0,0,0,0,0,0,2.4499,2.4469,2.4402,2.4404,2.444,2.4553,2.4554,2.4605,2.4615,2.4642,0,2.4669,0,2.4685,2.4706,2.4707,0,0,0,2.4438,2.4461,2.4491,2.4404,2.4441,2.4553,2.4501,2.4611,2.4621,2.4655,2.4671,2.4677,2.4687,2.4707,2.4708,2.4868,2.4869,0,0,2.4432,2.4423,2.4484,2.4498,2.4483,2.4498,2.4505,2.4617,2.4634,2.4672,2.468,2.469,2.4708,2.4709,2.4867,2.4868,0,0,0,2.4414,2.4419,2.4446,2.4492,2.4513,2.4501,2.4509,2.4629,2.4639,2.4681,2.4691,2.4709,2.471,2.4867,2.4868,2.4894,0,0,0,2.441,2.4408,2.4443,2.4439,2.4511,2.4574,2.4519,2.4631,2.4644,2.4691,2.4709,2.4712,2.4866,2.4867,2.4892,2.4909,0,0,0,2.4394,2.4406,2.4423,2.4439,2.4488,2.4572,2.4588,2.4634,2.465,2.4707,2.4712,2.4865,2.4867,2.489,2.4905,2.4944,0,0,0,2.4375,2.4449,2.4423,2.4508,2.4487,2.4589,2.4588,2.4664,2.4716,2.471,2.4866,2.4868,2.4889,2.4903,2.4942,2.4974,2.4988,0,0,2.4463,2.4459,2.4509,2.449,2.4593,2.4572,2.4678,2.4735,2.4749,2.4827,2.4831,2.4893,2.4905,2.4944,2.5071,2.5081,0,0,0,2.4534,2.4569,2.4599,2.4647,2.4691,2.4727,2.4768,2.4788,2.4853,2.4788,2.492,2.4927,2.495,2.4966,2.4975,2.4993,2.4875,2.4875,2.4875,2.4646,2.4656,2.4738,2.4761,2.4807,2.4845,2.4882,2.4914,2.4916,2.4945,2.4968,2.5044,2.5062,2.5069,2.5087,2.4988,2.4988,2.4988,2.4988,2.4771,2.4821,2.4815,2.4891,2.49,2.4964,2.5001,2.4998,2.5056,2.5029,2.505,2.5018,2.508,2.5096,2.4991,2.499,2.499,2.499,2.499,2.4844,2.4869,2.489,2.4955,2.5004,2.5024,2.5078,2.5086,2.5094,2.5114,2.5135,2.5135,2.5132,2.5124,2.5124,2.5125,2.5125,2.5125,2.5125,2.4909,2.4932,2.4977,2.5024,2.5052,2.5089,2.5123,2.515,2.5181,2.5182,2.5182,2.5176,2.5085,2.506,2.5129,2.5128,2.5128,2.5128,2.5127,2.5029,2.5001,2.5071,2.5099,2.515,2.5194,2.5202,2.5254,2.5277,2.5302,2.529,2.5223,2.522,2.5212,2.5191,2.5291,2.5291,2.5291,2.5291,2.5088,2.5086,2.5155,2.5197,2.5239,2.525,2.5323,2.5347,2.5368,2.5381,2.5368,2.5342,2.5334,2.5335,2.5325,2.5306,2.5432,2.5432,2.5432,2.5159,2.5161,2.5223,2.5242,2.5281,2.5312,2.5379,2.5424,2.5443,2.5438,2.5391,2.5385,2.5342,2.5329,2.5323,2.5308,2.5272,0,0]}]]